Location: Nitra
(0.0000°N, 18.0833°E)
Time: 13:01:06
(UTC+02:00)

Vanguard 1 Rocket - Visible Passes

Search period start: 29 March 2023 00:00
Search period end: 08 April 2023 00:00
Orbit: 652 x 4223 km, 34.3° (Epoch: 28 March)

Date Brightness Start Highest point End Pass type
(mag) Time Alt. Az. Time Alt. Az. Time Alt. Az.
29 Mar 10.3 04:19:30 10° N 04:22:37 12° NNE 04:25:13 10° NE visible
29 Mar 10.7 19:00:11 10° SW 19:21:36 86° NW 19:47:51 10° NE visible
29 Mar 11.2 21:33:24 10° W 21:56:26 40° NW 22:14:02 16° NNE visible
30 Mar 11.4 00:21:24 10° NW 00:31:25 16° NNW 00:31:25 16° NNW visible
30 Mar 9.1 05:32:18 10° NNW 05:38:40 27° NNE 05:42:59 10° E visible
30 Mar 11.0 20:17:04 10° WSW 20:40:00 56° NW 21:03:50 10° NE visible
30 Mar 11.3 22:57:55 10° WNW 23:16:26 24° NNW 23:24:58 19° N visible
31 Mar11.302:04:13NE02:04:13NE01:42:20NWvisible
31 Mar 9.9 04:21:32 13° NNW 04:26:14 18° NNE 04:30:38 10° ENE visible
31 Mar 10.8 19:02:54 10° WSW 19:23:49 74° NW 19:50:03 10° NE visible
31 Mar 11.4 21:37:36 10° W 21:59:27 34° NNW 22:18:23 11° NNE visible
01 Apr 11.4 00:26:53 10° NW 00:35:44 15° NNW 00:35:44 15° NNW visible
01 Apr 10.5 03:14:41 14° NNE 03:14:41 14° NNE 03:17:23 10° NE visible
01 Apr 8.4 05:34:12 10° NW 05:41:49 44° NNE 05:46:35 10° ESE visible
01 Apr 11.2 20:20:31 10° WSW 20:42:37 47° NNW 21:05:55 10° NE visible
01 Apr 11.3 23:03:29 10° WNW 23:20:23 21° NNW 23:29:00 16° N visible
02 Apr11.202:07:55NE02:07:55NE01:46:20NWvisible
02 Apr 9.5 04:25:15 19° NNW 04:29:42 27° NNE 04:34:56 10° E visible
02 Apr 11.0 19:05:51 10° WSW 19:26:12 63° NW 19:52:08 10° NE visible
02 Apr 11.5 21:42:17 10° WNW 22:02:51 29° NNW 22:21:13 10° NNE visible
03 Apr 11.4 00:31:25 10° NW 00:39:26 15° NNW 00:39:26 15° NNW visible
03 Apr 10.3 03:18:35 19° NNE 03:18:35 19° NNE 03:22:27 10° ENE visible
03 Apr 7.7 05:36:26 10° NW 05:44:49 71° NE 05:49:46 10° ESE visible
03 Apr 11.4 20:24:20 10° W 20:45:34 40° NNW 21:08:02 10° NE visible
03 Apr 11.4 23:09:03 10° NW 23:24:41 19° NNW 23:32:23 16° N visible
04 Apr11.102:11:57ENE02:11:57ENE01:49:42NNWvisible
04 Apr 9.0 04:29:18 28° NNW 04:33:00 39° NNE 04:38:41 10° E visible
04 Apr 11.2 19:09:06 10° WSW 19:28:49 53° NNW 19:54:08 10° NE visible
04 Apr 11.5 21:47:22 10° WNW 22:06:41 25° NNW 22:23:52 10° NNE visible
05 Apr 11.4 00:34:53 10° NNW 00:42:30 15° NNW 00:42:30 15° NNW visible
05 Apr 10.0 03:22:44 24° NE 03:22:44 24° NE 03:26:48 10° ENE visible
05 Apr 7.5 05:40:05 13° WNW 05:47:36 74° SW 05:52:40 10° SE visible
05 Apr 11.5 20:28:35 10° W 20:48:52 34° NNW 21:10:16 10° NNE visible
05 Apr 11.3 23:14:10 10° NW 23:29:12 18° N 23:35:12 16° NNE visible
06 Apr11.102:16:10ENE02:16:10ENE01:52:28NNWvisible
06 Apr 8.4 04:33:31 44° NNW 04:36:07 58° NNE 04:42:03 10° ESE visible
06 Apr 11.4 19:12:39 10° W 19:31:43 45° NNW 19:56:08 10° NE visible
06 Apr 11.5 21:52:42 10° WNW 22:10:54 22° NNW 22:26:57 10° NNE visible
07 Apr 11.4 00:37:34 10° NNW 00:45:04 17° NNW 00:45:04 17° NNW visible
07 Apr 9.7 03:26:57 29° ENE 03:26:57 29° ENE 03:30:41 10° E visible
07 Apr 7.9 05:44:18 18° WNW 05:50:13 47° SW 05:55:15 10° SSE visible
07 Apr 11.6 20:33:14 10° WNW 20:52:33 29° NNW 21:12:43 10° NNE visible
07 Apr 11.3 23:18:30 10° NW 23:33:48 19° N 23:37:34 18° NNE visible
